Weather Roundup
Issued by NWS Chicago, IL

Home | Current Version | Previous Version | Graphics & Text | Print | Product List | Glossary On
Versions: 1 2 3 4 5 6 7 8 9 10 11 12 13 14 15 16 17 18 19 20 21 22 23 24 25 26 27 28 29 30 31 32 33 34 35 36 37 38 39 40 41 42 43 44 45 46 47 48 49 50
000
NZUS59 KLOT 182308
HRRLOT

CHICAGO AREA WEATHER ROUNDUP
NATIONAL WEATHER SERVICE CHICAGO/ROMEOVILLE IL
600 PM CDT FRI AUG 18 2017

NOTE: "FAIR" INDICATES FEW OR NO CLOUDS BELOW 12,000 FEET WITH NO
SIGNIFICANT WEATHER AND/OR OBSTRUCTIONS TO VISIBILITY.

* THESE STATIONS ARE NOT UNDER NWS QUALITY CONTROL. THEY ALSO MAY NOT
  REPORT WEATHER SUCH AS PRECIPITATION OR FOG.

ILZ005-006-012>014-019>023-190000-
NORTHEAST ILLINOIS

CITY           SKY/WX    TMP DP  RH WIND       PRES   REMARKS
OHARE          MOSUNNY   80  59  48 W14       29.84S HX  81
MIDWAY         MOSUNNY   82  59  45 W14       29.84S HX  82
AURORA         MOSUNNY   78  64  61 W9        29.87R HX  80
LANSING*       SUNNY     80  60  49 W12       29.85F HX  81
JOLIET*        SUNNY     81  63  53 W8        29.86S HX  82
WAUKEGAN       MOSUNNY   76  63  64 CALM      29.84S
DUPAGE AIRPORT SUNNY     78  62  57 W13G20    29.85S HX  80
WHEELING       SUNNY     79  62  56 W13       29.85S HX  80
MORRIS*        SUNNY     79  64  58 W8        29.85S HX  81
LEWIS AIRPORT* SUNNY     78  61  54 W12       29.86S HX  80
NORTHERLY ISL    N/A     82  53  36 W10         N/A  HX  81
$$

WIZ051-052-058>065-066-070>072-190000-
SOUTHEAST WISCONSIN

CITY           SKY/WX    TMP DP  RH WIND       PRES   REMARKS
MILWAUKEE      MOSUNNY   79  59  50 W12       29.84S HX  80
KENOSHA*       PTSUNNY   76  62  62 W7        29.85S
RACINE*        MOSUNNY   76  62  62 NW9       29.86S
WAUKESHA       MOSUNNY   73  59  60 W10       29.86S
WEST BEND      SUNNY     73  59  60 W6        29.85S
$$

INZ001>003-010>013-019-020-190000-
NORTHWEST INDIANA

CITY           SKY/WX    TMP DP  RH WIND       PRES   REMARKS
GARY*          SUNNY     82  55  39 W12       29.85S HX  82
MICHIGAN CITY* NOT AVBL
RENSSELAER*    NOT AVBL
VALPARAISO     SUNNY     81  63  54 W10       29.86F HX  82
$$

LMZ740>746-190000-
SOUTHERN LAKE MICHIGAN

STATION/POSITION TIME  SKY/WX   TEMP WIND        PRES    VSBY
                                AIR  DIR/SP/G
                 (UTC)          (F)  (DEG/KT/KT) (MB)    (MI)
HARRISON CRIB    2240            75   60/  7/  9   N/A
BURNHAM HARBOR   NOT AVBL
CALUMET HARBOR   2248            81  230/  8/ 11 1009.8F
BURNS HARBOR     2240            79  240/  7/  9 1010.8F
MICHIGAN CITY    2240            78  360/  1/  2   N/A
$$

ABBREVIATIONS USED IN REMARKS
   TC - TEMPERATURE IN CELSIUS
  WCI - WIND CHILL INDEX
   HX - HEAT INDEX
  VSB - VISIBILITY
$$




USA.gov is the U.S. government's official web portal to all federal, state and local government web resources and services.